This is the latest recevied weather packets stored in our database for station/object DL9GJ-4. If no packets are shown the sender has not sent any weather packets the latest 10 day(s).
| Time | Temp. | Humidity | Pressure | Rain* | Wind** | Luminosity | Snow |
|---|---|---|---|---|---|---|---|
| 1788511154 | 21.67° C | 16% | 1020 hPa | 0 mm | - | - | - |
| 1788509702 | 21.11° C | 22% | 1020 hPa | 0 mm | - | - | - |
| 1788508618 | 20° C | 27% | 1020 hPa | 0 mm | - | - | - |
| 1788508255 | 19.44° C | 32% | 1020 hPa | 0 mm | - | - | - |
| 1788507893 | 18.89° C | 33% | 1020 hPa | 0 mm | - | - | - |
| 1788507166 | 17.78° C | 34% | 1020 hPa | 0 mm | - | - | - |
| 1788506807 | 17.78° C | 34% | 1020 hPa | 0 mm | - | - | - |
| 1788506442 | 17.22° C | 34% | 1020 hPa | 0 mm | - | - | - |
| 1788506081 | 17.22° C | 34% | 1020 hPa | 0 mm | - | - | - |
| 1788505719 | 16.67° C | 34% | 1020 hPa | 0 mm | - | - | - |
| 1788505356 | 16.67° C | 34% | 1020 hPa | 0 mm | - | - | - |
| 1788504993 | 16.67° C | 33% | 1020 hPa | 0 mm | - | - | - |
| 1788504627 | 16.67° C | 32% | 1020 hPa | 0 mm | - | - | - |
| 1788504264 | 16.67° C | 31% | 1020 hPa | 0 mm | - | - | - |
| 1788503538 | 16.67° C | 31% | 1020 hPa | 0 mm | - | - | - |
| 1788503176 | 16.67° C | 31% | 1020 hPa | 0 mm | - | - | - |
| 1788502808 | 16.67° C | 31% | 1020 hPa | 0 mm | - | - | - |
| 1788502446 | 16.67° C | 31% | 1020 hPa | 0 mm | - | - | - |
| 1788502118 | 16.11° C | 34% | 1020 hPa | 0 mm | - | - | - |
| 1788502083 | 16.11° C | 34% | 1020 hPa | 0 mm | - | - | - |
| 1788501361 | 16.11° C | 36% | 1020 hPa | 0 mm | - | - | - |
| 1788500272 | 14.44° C | 50% | 1020 hPa | 0 mm | - | - | - |
| 1788499549 | 11.67° C | 45% | 1020 hPa | 0 mm | - | - | - |
| 1788499186 | 11.67° C | 43% | 1020 hPa | 0 mm | - | - | - |
| 1788498821 | 11.67° C | 43% | 1020 hPa | 0 mm | - | - | - |
* Rain latest hour (hover to see other rain measurements)
** Current wind speed in m/s (hover to see current wind gust speed)